Погода в Дехивала-Маунт-Лавинии

Шри-Ланка     6°50′25″N   79°52′41″E
темп.,
°C
ветер,
м/с
пор.,
м/с
влажн.,
%
обл.,
%
осадки,
мм/ч
давл.,
гПа
погр.,
м
15 апреля, чт
чт1523:30+24всв1193100 9.4 101253
02:30+24вюв2293100 0.6 101061
05:30+23вюв229498 2.4 101155
08:30+27юв117963 0.7 1013325
11:30+30з226899 3.9 10121113
14:30+30зюз446888 1.3 1008973
17:30+28зюз247567 2.9 1009493
20:30+26ю2284100 0.2 101161
16 апреля, пт
пт1623:30+25ююв1288100 0.6 101155
02:30+24юв129398 2.5 100961
05:30+24вюв2294100 5.1 101074
08:30+27вюв118199 1.4 1013281
11:30+30з2267100 7.4 10121011
14:30+31зюз3360100 0.3 10081322
17:30+28зюз2473100 0.3 1009338
20:30+26ююз1182100 0.0 101242
17 апреля, сб
сб1723:30+25юв118699 0.1 101230
02:30+25юв2289100 0.1 100956
05:30+24юв228999 0.0 101170
08:30+28юв2373100 0.0 1013550
11:30+32юз335695 0.0 10121517
14:30+31юз445912 0.1 10091189
17:30+28юз357571 1.4 1010545
20:30+26ю2285100 1.4 101360
18 апреля, вс
вс1823:30+26юв128871 1.6 101354
02:30+25ююв1290100 0.3 101164
05:30+25ююв239082 0.6 101277
08:30+29ююз237485 0.8 1014803
11:30+31юз446598 2.2 10131273
14:30+30юз456777 1.1 10101204
17:30+27юз3581100 5.2 1010347
20:30+26ю2286100 0.9 101278
19 апреля, пн
пн1923:30+26ю1288100 1.6 101354
02:30+26юз1287100 0.6 101060
05:30+25ююз1289100 1.5 101155
08:30+29юз2475100 0.3 1013756
11:30+30зюз4469100 1.3 10121060
14:30+30юз456996 1.3 10091066
17:30+28юз248034 3.3 1010339
20:30+25ю128996 0.5 101164